Location: eljas
(40.1958°N, 6.8661°W)
Time: 12:50:55
(UTC+01:00)

Amateur Radio Satellites - All Passes

Search period start: 11 December 2016 12:20
Search period end: 12 December 2016 12:20
Location: eljas, 40.1958°N, 6.8661°W

Satellite Date Start Highest point End Downlink Frequencies (MHz)
Time Altitude Azimuth
TIGRISAT 11 Dec 12:22:46 12:24:32 12° 270° (W) 12:26:17 435.000
ANTELSAT 11 Dec 12:26:59 12:27:36 10° 271° (W) 12:28:13 437.575/2403.000
GONETS M04 11 Dec 12:44:13 12:53:00 79° 82° (E) 13:01:45
NANOSAT C BR1 11 Dec 12:50:45 12:54:49 44° 261° (W) 12:58:55 145.865
JAS-2 11 Dec 12:54:42 13:00:19 35° 262° (W) 13:05:27 435.910
BEESAT 2 11 Dec 12:58:51 13:00:49 13° 42° (NE) 13:02:48 435.950
QB50P2 11 Dec 13:02:48 13:06:30 28° 264° (W) 13:10:14 145.880/145.840
POLYITAN 1 11 Dec 13:03:05 13:06:51 30° 263° (W) 13:10:38 437.675
DUCHIFAT 1 11 Dec 13:10:21 13:14:04 29° 264° (W) 13:17:48 145.980
AISAT 11 Dec 13:12:40 13:17:00 47° 100° (E) 13:21:17 437.250
QB50P1 11 Dec 13:14:39 13:18:03 23° 265° (W) 13:21:27 145.935-145.965
Oscar 19 11 Dec 13:19:54 13:24:25 32° 68° (ENE) 13:28:59 437.125/150
CUBEBUG 1 11 Dec 13:23:14 13:27:42 89° 274° (W) 13:32:07 437.445
ESTCUBE 1 11 Dec 13:30:42 13:35:02 45° 288° (WNW) 13:39:21 437.505/2401.250
RS-15 11 Dec 13:33:13 13:42:21 23° 12° (NNE) 13:51:27 29.354- 29.394
PCSat 11 Dec 13:35:06 13:38:11 15° 318° (NW) 13:41:18 145.827
POPSAT HIP 1 11 Dec 13:38:16 13:40:22 13° 268° (W) 13:42:30 437.405
UKube-1 11 Dec 13:38:58 13:42:53 32° 98° (E) 13:46:47 .
SPROUT 11 Dec 13:39:10 13:43:26 60° 101° (E) 13:47:37 437.525
DX 1 11 Dec 13:43:06 13:47:24 49° 100° (E) 13:51:38 434.975-435.025
BUGSAT 1 11 Dec 13:43:25 13:47:14 32° 263° (W) 13:51:04 437.445
50 SAT 11 Dec 13:44:47 13:48:21 83° 283° (WNW) 13:51:56 437.505
VELOX 1 11 Dec 13:49:05 13:53:33 72° 285° (WNW) 13:57:59 145.980
AO-7 11 Dec 13:52:37 13:56:28 14° 46° (NE) 14:00:20 29.400- 29.500
BEESAT 3 11 Dec 13:53:23 13:57:23 87° 59° (ENE) 14:01:22 437.485
Gurwin Techsat 1B 11 Dec 14:01:47 14:06:44 42° 70° (ENE) 14:11:44 435.225
ITAMSAT 1 11 Dec 14:05:38 14:06:03 10° 57° (ENE) 14:06:28 435.822/435.867
Cosmos 2499 11 Dec 14:12:12 14:18:46 26° 279° (W) 14:24:58 435.465 / 435.565
BEESAT 2 11 Dec 14:35:04 14:39:06 74° 240° (WSW) 14:43:06 435.950
TISAT 1 11 Dec 14:40:23 14:44:26 43° 99° (E) 14:48:25 437.305
GONETS M04 11 Dec 14:42:51 14:48:44 21° 281° (W) 14:54:40
AISAT 11 Dec 14:50:14 14:53:03 17° 296° (WNW) 14:55:53 437.250
Oscar 19 11 Dec 14:59:16 15:03:41 29° 264° (W) 15:08:10 437.125/150
UKube-1 11 Dec 15:15:23 15:18:43 22° 293° (WNW) 15:22:02 .
SPROUT 11 Dec 15:17:00 15:18:49 12° 297° (WNW) 15:20:37 437.525
DX 1 11 Dec 15:20:33 15:23:08 16° 296° (WNW) 15:25:44 434.975-435.025
ISS 11 Dec 15:23:11 15:26:24 58° 139° (SE) 15:29:38 145.825
ITAMSAT 1 11 Dec 15:39:25 15:44:38 78° 74° (ENE) 15:49:51 435.822/435.867
AO-7 11 Dec 15:39:27 15:47:34 62° 67° (ENE) 15:55:45 29.400- 29.500
Gurwin Techsat 1B 11 Dec 15:42:35 15:46:49 24° 266° (W) 15:51:04 435.225
SWISSCUBE 11 Dec 15:45:08 15:49:43 46° 100° (E) 15:54:16 437.505
RS-15 11 Dec 15:47:14 15:59:08 48° 44° (NE) 16:10:39 29.354- 29.394
BEESAT 11 Dec 15:48:32 15:53:06 45° 99° (E) 15:57:39 436.000
O/OREOS (USA 219) 11 Dec 15:54:13 15:58:37 49° 107° (ESE) 16:03:00 437.305
MOZHAYETS 4 11 Dec 16:03:43 16:06:29 16° 92° (E) 16:09:14
AUBIESAT-1 11 Dec 16:14:52 16:19:17 53° 104° (ESE) 16:23:26 437.475
AIST 2 11 Dec 16:16:17 16:20:09 33° 51° (NE) 16:23:59 435.215
TISAT 1 11 Dec 16:17:08 16:19:42 16° 295° (WNW) 16:22:15 437.305
ITUPSAT 1 11 Dec 16:20:05 16:24:52 87° 282° (WNW) 16:29:37 437.325
M-CUBED/EXP-1 PRIME 11 Dec 16:32:09 16:36:48 80° 288° (WNW) 16:41:08 437.505
Cosmos 2491 11 Dec 16:52:03 16:55:46 13° 58° (ENE) 16:59:27 435.465 / 435.565
ISS 11 Dec 17:00:27 17:03:07 22° 337° (NNW) 17:05:47 145.825
GOMX 1 11 Dec 17:01:36 17:03:19 12° 59° (ENE) 17:05:03 467.674
STARS 11 Dec 17:16:50 17:19:42 17° 93° (E) 17:22:33 437.465
ITAMSAT 1 11 Dec 17:22:44 17:24:38 12° 270° (W) 17:26:33 435.822/435.867
SWISSCUBE 11 Dec 17:23:51 17:27:08 19° 296° (WNW) 17:30:25 437.505
KKS-1 11 Dec 17:26:22 17:30:43 47° 100° (E) 17:35:00 437.445
BEESAT 11 Dec 17:27:11 17:30:33 19° 295° (WNW) 17:33:53 436.000
AO-7 11 Dec 17:33:53 17:40:46 29° 264° (W) 17:47:44 29.400- 29.500
O/OREOS (USA 219) 11 Dec 17:35:14 17:38:17 18° 304° (NW) 17:41:21 437.305
HORYU 2 11 Dec 17:37:33 17:41:50 46° 72° (ENE) 17:46:08 437.375
MOZHAYETS 4 11 Dec 17:39:30 17:43:53 48° 287° (WNW) 17:48:15
AUBIESAT-1 11 Dec 17:50:23 17:53:12 17° 302° (WNW) 17:55:55 437.475
BRITE-PL 11 Dec 17:52:58 17:57:22 86° 76° (ENE) 18:02:11 437.365/2234.400
AIST 2 11 Dec 17:55:04 17:58:27 24° 248° (WSW) 18:01:50 435.215
CUTE-I 11 Dec 17:57:19 18:01:39 25° 65° (ENE) 18:05:58 437.470
CUBESAT XI-V 11 Dec 17:58:11 18:02:33 38° 98° (E) 18:06:54 437.345
RS-15 11 Dec 18:00:04 18:11:59 58° 248° (WSW) 18:23:28 29.354- 29.394
NOAA 15 11 Dec 18:00:20 18:04:47 29° 66° (ENE) 18:09:16 137.62
DOVE 4 11 Dec 18:16:25 18:20:37 28° 67° (ENE) 18:24:59 437.250
Cubesat XI-IV 11 Dec 18:24:22 18:29:25 43° 70° (ENE) 18:34:29 437.490
LilacSat-2 11 Dec 18:31:43 18:35:24 45° 74° (ENE) 18:39:04 437.200
GOMX 1 11 Dec 18:35:48 18:40:30 84° 256° (WSW) 18:45:38 467.674
ISS 11 Dec 18:39:20 18:40:34 12° 357° (N) 18:41:48 145.825
Cosmos 2491 11 Dec 18:45:42 18:54:25 69° 80° (E) 19:03:05 435.465 / 435.565
STARS 11 Dec 18:52:03 18:56:14 42° 289° (WNW) 19:00:21 437.465
CINEMA 3 11 Dec 18:52:16 18:55:28 17° 64° (ENE) 18:58:42 145.822/145.860
PCSat 11 Dec 18:55:43 18:57:58 12° 39° (NE) 19:00:13 145.827
NOAA 18 11 Dec 18:55:59 19:01:23 56° 71° (ENE) 19:06:49 137.9125
KKS-1 11 Dec 19:04:03 19:06:52 17° 296° (WNW) 19:09:40 437.445
YUBILEINY 11 Dec 19:09:57 19:17:56 43° 87° (E) 19:26:00 435.215
CANX-2 11 Dec 19:12:43 19:15:07 15° 65° (ENE) 19:17:31 2200.000
HORYU 2 11 Dec 19:15:52 19:18:36 16° 267° (W) 19:21:20 437.375
HO-68 11 Dec 19:20:28 19:26:45 35° 63° (ENE) 19:33:05 435.675
SEEDS 11 Dec 19:26:13 19:27:51 12° 64° (ENE) 19:29:28 437.485
CUBESAT XI-V 11 Dec 19:36:07 19:39:40 22° 293° (WNW) 19:43:14 437.345
CUTE-I 11 Dec 19:36:24 19:41:26 41° 261° (W) 19:46:31 437.470
NOAA 15 11 Dec 19:39:43 19:44:26 34° 263° (W) 19:49:12 137.62
SO-50 11 Dec 19:45:17 19:49:57 58° 118° (ESE) 19:54:35 436.795
DOVE 4 11 Dec 19:53:40 19:58:07 34° 265° (W) 20:02:48 437.250
AIST 1 11 Dec 19:55:55 19:59:49 35° 91° (E) 20:03:48
Cubesat XI-IV 11 Dec 20:05:24 20:09:38 23° 266° (W) 20:13:54 437.490
CUBEBUG 2 11 Dec 20:05:27 20:09:08 23° 68° (ENE) 20:12:48 437.445
LilacSat-2 11 Dec 20:08:31 20:09:55 12° 269° (W) 20:11:18 437.200
ISS 11 Dec 20:15:53 20:18:08 17° 17° (NNE) 20:20:22 145.825
Cosmos 2504 11 Dec 20:18:35 20:26:49 58° 90° (E) 20:35:27 435.465 / 435.565
AAUSAT CUBESAT 2 11 Dec 20:21:47 20:25:10 25° 69° (ENE) 20:28:33 437.432
CUTE 1.7 + AOD 2 11 Dec 20:26:59 20:31:11 88° 81° (E) 20:35:25 437.475
CINEMA 3 11 Dec 20:27:12 20:32:05 58° 260° (W) 20:37:04 145.822/145.860
CUSAT 1 11 Dec 20:31:31 20:35:34 42° 79° (E) 20:40:50 437.405
UWE-3 11 Dec 20:34:38 20:38:36 29° 70° (ENE) 20:42:31 435.000/436.395/437.385
PCSat 11 Dec 20:37:00 20:42:25 67° 59° (ENE) 20:47:48 145.827
NOAA 18 11 Dec 20:38:29 20:42:22 19° 267° (W) 20:46:16 137.9125
Cosmos 2491 11 Dec 20:43:54 20:50:24 24° 279° (W) 20:56:54 435.465 / 435.565
CANX-2 11 Dec 20:46:33 20:50:35 46° 261° (W) 20:54:38 2200.000
STRAND 1 11 Dec 20:46:42 20:51:48 69° 102° (ESE) 20:56:52 437.568
COMPASS 1 11 Dec 20:57:28 21:01:34 88° 85° (E) 21:05:43 437.405
SEEDS 11 Dec 20:58:57 21:03:02 58° 260° (W) 21:07:09 437.485
ZACube-1 11 Dec 21:01:40 21:05:43 33° 71° (ENE) 21:09:42 437.345
FUNcube-1 11 Dec 21:05:44 21:09:47 34° 71° (ENE) 21:13:47 145.935
YUBILEINY 11 Dec 21:06:38 21:14:42 41° 287° (WNW) 21:22:53 435.215
HO-68 11 Dec 21:07:27 21:14:15 46° 260° (W) 21:21:08 435.675
SO-50 11 Dec 21:27:16 21:30:46 20° 316° (NW) 21:34:15 436.795
Oscar 11 11 Dec 21:28:08 21:32:21 56° 74° (ENE) 21:36:35 145.826/435.025
AIST 1 11 Dec 21:34:27 21:37:31 19° 288° (WNW) 21:40:37
HUMSAT D 11 Dec 21:37:19 21:39:19 13° 65° (ENE) 21:41:19 437.325/437.525
CUBEBUG 2 11 Dec 21:41:09 21:45:31 36° 263° (W) 21:49:52 437.445
ISS 11 Dec 21:51:47 21:55:06 73° 37° (NE) 21:58:24 145.825
AAUSAT CUBESAT 2 11 Dec 21:57:12 22:00:33 24° 265° (W) 22:03:55 437.432
DELFI C3 11 Dec 22:00:59 22:04:43 44° 73° (ENE) 22:08:28 145.870
UWE-3 11 Dec 22:11:03 22:14:58 27° 265° (W) 22:18:51 435.000/436.395/437.385
Cosmos 2504 11 Dec 22:13:18 22:20:40 31° 291° (WNW) 22:28:21 435.465 / 435.565
CUSAT 1 11 Dec 22:14:15 22:17:23 18° 266° (W) 22:21:02 437.405
DANDE 11 Dec 22:18:30 22:21:39 47° 262° (W) 22:25:40 436.750
PCSat 11 Dec 22:22:00 22:25:12 16° 256° (WSW) 22:28:23 145.827
STRAND 1 11 Dec 22:27:37 22:30:22 15° 299° (WNW) 22:33:08 437.568
PHONESAT 2.4 11 Dec 22:28:35 22:30:27 17° 152° (SSE) 22:32:18 2401.200-2431.200
TIGRISAT 11 Dec 22:36:50 22:38:54 13° 91° (E) 22:40:57 435.000
ZACube-1 11 Dec 22:38:31 22:42:01 22° 266° (W) 22:45:29 437.345
ANTELSAT 11 Dec 22:39:33 22:42:06 15° 92° (E) 22:44:37 437.575/2403.000
FUNcube-1 11 Dec 22:42:37 22:46:03 21° 266° (W) 22:49:28 145.935
PRISM 11 Dec 22:53:00 22:57:11 78° 284° (WNW) 23:01:21 437.425
ESTCUBE 1 11 Dec 22:54:47 22:57:18 15° 64° (ENE) 22:59:49 437.505/2401.250
Oscar 11 11 Dec 23:07:10 23:08:49 12° 270° (W) 23:10:29 145.826/435.025
HUMSAT D 11 Dec 23:10:25 23:14:29 52° 260° (W) 23:18:33 437.325/437.525
ISS 11 Dec 23:29:53 23:31:11 12° 231° (SW) 23:32:27 145.825
DELFI C3 11 Dec 23:37:59 23:39:45 13° 269° (W) 23:41:31 145.870
UNISAT 6 11 Dec 23:43:34 23:47:56 84° 103° (ESE) 23:52:12 437.425
GONETS M04 11 Dec 23:52:06 23:57:14 17° 77° (ENE) 00:02:20
PHONESAT 2.4 12 Dec 00:02:40 00:05:18 68° 167° (SSE) 00:07:56 2401.200-2431.200
JAS-2 12 Dec 00:03:23 00:07:51 27° 96° (E) 00:12:34 435.910
AISAT 12 Dec 00:09:14 00:13:21 39° 71° (ENE) 00:17:30 437.250
TIGRISAT 12 Dec 00:11:43 00:15:55 50° 287° (WNW) 00:20:02 435.000
ANTELSAT 12 Dec 00:14:55 00:19:03 43° 288° (WNW) 00:23:05 437.575/2403.000
CUBEBUG 1 12 Dec 00:18:11 00:22:31 69° 75° (ENE) 00:26:55 437.445
50 SAT 12 Dec 00:19:25 00:22:35 33° 72° (ENE) 00:25:46 437.505
ESTCUBE 1 12 Dec 00:29:16 00:33:38 53° 260° (W) 00:38:03 437.505/2401.250
SPROUT 12 Dec 00:31:47 00:35:50 41° 72° (ENE) 00:39:54 437.525
UKube-1 12 Dec 00:33:01 00:36:36 26° 68° (ENE) 00:40:12 .
NANOSAT C BR1 12 Dec 00:35:45 00:39:25 29° 96° (E) 00:43:04 145.865
DX 1 12 Dec 00:37:54 00:41:57 39° 71° (ENE) 00:46:03 434.975-435.025
VELOX 1 12 Dec 00:45:20 00:49:45 88° 254° (WSW) 00:54:13 145.980
QB50P2 12 Dec 00:47:34 00:51:39 46° 99° (E) 00:55:42 145.880/145.840
POLYITAN 1 12 Dec 00:47:57 00:51:59 43° 99° (E) 00:55:59 437.675
Cosmos 2499 12 Dec 00:52:07 01:00:24 52° 89° (E) 01:08:54 435.465 / 435.565
DUCHIFAT 1 12 Dec 00:54:21 00:58:22 43° 99° (E) 01:02:20 145.980
QB50P1 12 Dec 00:58:47 01:02:58 58° 100° (E) 01:07:06 145.935-145.965
POPSAT HIP 1 12 Dec 01:20:57 01:25:11 79° 284° (WNW) 01:29:22 437.405
BUGSAT 1 12 Dec 01:25:28 01:29:19 35° 98° (E) 01:33:04 437.445
AO-85 12 Dec 01:28:35 01:33:21 48° 117° (ESE) 01:37:47 145.980
TISAT 1 12 Dec 01:31:21 01:35:05 30° 70° (ENE) 01:38:48 437.305
Oscar 19 12 Dec 01:34:05 01:35:41 11° 89° (E) 01:37:16 437.125/150
PHONESAT 2.4 12 Dec 01:37:47 01:40:26 83° 3° (N) 01:43:04 2401.200-2431.200
GONETS M04 12 Dec 01:44:02 01:52:46 89° 282° (WNW) 02:01:30
M-CUBED/EXP-1 PRIME 12 Dec 01:45:30 01:47:29 13° 56° (NE) 01:49:29 437.505
AISAT 12 Dec 01:46:49 01:49:56 19° 267° (W) 01:53:05 437.250
JAS-2 12 Dec 01:48:14 01:53:01 36° 291° (WNW) 01:58:06 435.910
ITUPSAT 1 12 Dec 01:52:03 01:53:38 12° 60° (ENE) 01:55:14 437.325
50 SAT 12 Dec 01:54:16 01:55:59 13° 267° (W) 01:57:42 437.505
O/OREOS (USA 219) 12 Dec 02:04:38 02:09:08 86° 69° (ENE) 02:13:35 437.305
UKube-1 12 Dec 02:08:54 02:12:32 26° 264° (W) 02:16:13 .
SPROUT 12 Dec 02:09:11 02:11:55 16° 268° (W) 02:14:40 437.525
NANOSAT C BR1 12 Dec 02:11:41 02:14:59 23° 292° (WNW) 02:18:17 145.865
DX 1 12 Dec 02:15:21 02:18:17 18° 267° (W) 02:21:15 434.975-435.025
Gurwin Techsat 1B 12 Dec 02:19:32 02:22:56 17° 92° (E) 02:26:18 435.225
QB50P2 12 Dec 02:24:36 02:27:03 15° 295° (WNW) 02:29:30 145.880/145.840
POLYITAN 1 12 Dec 02:24:50 02:27:25 16° 295° (WNW) 02:29:59 437.675
DUCHIFAT 1 12 Dec 02:31:07 02:33:40 16° 295° (WNW) 02:36:13 145.980
QB50P1 12 Dec 02:36:26 02:38:13 12° 297° (WNW) 02:39:59 145.935-145.965
Cosmos 2499 12 Dec 02:45:56 02:53:45 36° 289° (WNW) 03:01:47 435.465 / 435.565
SWISSCUBE 12 Dec 02:50:50 02:55:25 50° 72° (ENE) 03:00:02 437.505
BEESAT 12 Dec 02:54:10 02:58:46 49° 72° (ENE) 03:03:21 436.000
AUBIESAT-1 12 Dec 02:59:13 03:03:25 58° 69° (ENE) 03:07:53 437.475
BUGSAT 1 12 Dec 03:01:31 03:04:24 18° 294° (WNW) 03:07:14 437.445
MOZHAYETS 4 12 Dec 03:05:33 03:08:11 15° 64° (ENE) 03:10:48
TISAT 1 12 Dec 03:07:25 03:10:42 22° 265° (W) 03:14:02 437.305
AO-85 12 Dec 03:10:12 03:13:57 22° 313° (NW) 03:17:31 145.980
Oscar 19 12 Dec 03:10:21 03:15:35 81° 284° (WNW) 03:20:47 437.125/150
PHONESAT 2.4 12 Dec 03:12:59 03:15:28 37° 200° (SSW) 03:17:56 2401.200-2431.200
M-CUBED/EXP-1 PRIME 12 Dec 03:17:00 03:21:15 73° 254° (WSW) 03:25:49 437.505
ITUPSAT 1 12 Dec 03:26:00 03:30:47 81° 257° (WSW) 03:35:35 437.325
AO-7 12 Dec 03:43:11 03:48:50 19° 92° (E) 03:54:26 29.400- 29.500
BEESAT 3 12 Dec 03:44:21 03:46:43 16° 110° (ESE) 03:49:05 437.485
GONETS M04 12 Dec 03:45:17 03:50:51 18° 298° (WNW) 03:56:27
ITAMSAT 1 12 Dec 03:53:19 03:57:45 28° 96° (E) 04:02:09 435.822/435.867
Gurwin Techsat 1B 12 Dec 03:58:01 04:03:14 58° 288° (WNW) 04:08:26 435.225
STARS 12 Dec 04:13:24 04:15:58 15° 64° (ENE) 04:18:32 437.465
SO-50 12 Dec 04:17:20 04:21:40 42° 52° (NE) 04:25:54 436.795
KKS-1 12 Dec 04:23:38 04:27:50 41° 71° (ENE) 04:32:03 437.445
BEESAT 2 12 Dec 04:26:49 04:29:46 21° 112° (ESE) 04:32:45 435.950
SWISSCUBE 12 Dec 04:30:31 04:33:29 16° 268° (W) 04:36:27 437.505
BEESAT 12 Dec 04:33:43 04:36:47 17° 267° (W) 04:39:52 436.000
AUBIESAT-1 12 Dec 04:36:09 04:38:13 13° 266° (W) 04:40:19 437.475
MOZHAYETS 4 12 Dec 04:40:23 04:44:52 54° 260° (W) 04:49:22
Oscar 19 12 Dec 04:53:04 04:54:02 10° 302° (WNW) 04:55:00 437.125/150
CUBESAT XI-V 12 Dec 05:00:56 05:05:03 34° 70° (ENE) 05:09:13 437.345
BEESAT 3 12 Dec 05:20:16 05:23:58 42° 307° (NW) 05:27:44 437.485
YUBILEINY 12 Dec 05:21:14 05:27:25 20° 64° (ENE) 05:33:35 435.215
ITAMSAT 1 12 Dec 05:32:34 05:37:13 34° 292° (WNW) 05:41:50 435.822/435.867
AO-7 12 Dec 05:34:02 05:42:27 85° 289° (WNW) 05:50:50 29.400- 29.500
STARS 12 Dec 05:47:34 05:51:52 52° 260° (W) 05:56:13 437.465
Cosmos 2491 12 Dec 05:54:46 05:59:00 15° 76° (ENE) 06:03:12 435.465 / 435.565
BRITE-PL 12 Dec 05:57:36 06:02:41 34° 96° (E) 06:07:48 437.365/2234.400
SO-50 12 Dec 05:58:32 06:01:48 20° 249° (WSW) 06:05:02 436.795
KKS-1 12 Dec 06:01:29 06:04:33 18° 267° (W) 06:07:38 437.445
BEESAT 2 12 Dec 06:03:45 06:07:20 33° 308° (NW) 06:10:59 435.950
RS-15 12 Dec 06:12:13 06:21:14 27° 101° (E) 06:30:31 29.354- 29.394
Cosmos 2504 12 Dec 06:13:26 06:19:38 21° 63° (ENE) 06:25:33 435.465 / 435.565
NOAA 15 12 Dec 06:18:41 06:19:30 10° 89° (E) 06:20:20 137.62
STRAND 1 12 Dec 06:26:49 06:28:37 12° 59° (ENE) 06:30:25 437.568
GOMX 1 12 Dec 06:38:09 06:43:09 35° 95° (E) 06:48:02 467.674
CUBESAT XI-V 12 Dec 06:38:54 06:42:29 22° 266° (W) 06:46:05 437.345
Cubesat XI-IV 12 Dec 06:43:08 06:46:39 18° 92° (E) 06:50:09 437.490
HORYU 2 12 Dec 07:05:06 07:09:33 81° 283° (WNW) 07:13:57 437.375
YUBILEINY 12 Dec 07:16:29 07:25:22 85° 264° (W) 07:34:12 435.215
NOAA 18 12 Dec 07:19:15 07:23:41 24° 95° (E) 07:28:03 137.9125
AO-7 12 Dec 07:28:29 07:34:03 20° 309° (NW) 07:39:36 29.400- 29.500
BRITE-PL 12 Dec 07:36:04 07:41:02 34° 291° (WNW) 07:46:06 437.365/2234.400
LilacSat-2 12 Dec 07:39:27 07:43:14 77° 103° (ESE) 07:46:59 437.200
AIST 1 12 Dec 07:40:19 07:44:44 81° 264° (W) 07:49:06
Cosmos 2491 12 Dec 07:45:34 07:54:20 81° 95° (E) 08:03:06 435.465 / 435.565
AIST 2 12 Dec 07:50:51 07:54:56 82° 120° (ESE) 07:59:07 435.215
DOVE 4 12 Dec 07:52:36 07:57:51 76° 101° (E) 08:02:51 437.250
CUTE-I 12 Dec 07:53:33 07:58:55 83° 104° (ESE) 08:04:13 437.470
NOAA 15 12 Dec 07:54:36 07:59:55 88° 287° (WNW) 08:05:13 137.62
STRAND 1 12 Dec 08:01:53 08:07:01 88° 250° (WSW) 08:12:11 437.568
Cosmos 2504 12 Dec 08:05:26 08:14:09 82° 265° (W) 08:22:14 435.465 / 435.565
CUTE 1.7 + AOD 2 12 Dec 08:13:32 08:16:08 16° 92° (E) 08:18:43 437.475
GOMX 1 12 Dec 08:16:17 08:21:05 31° 292° (WNW) 08:25:48 467.674
RS-15 12 Dec 08:20:25 08:32:14 83° 302° (WNW) 08:44:38 29.354- 29.394
Cubesat XI-IV 12 Dec 08:21:51 08:27:04 56° 288° (WNW) 08:32:15 437.490
CINEMA 3 12 Dec 08:23:03 08:27:22 36° 97° (E) 08:31:27 145.822/145.860
CANX-2 12 Dec 08:32:04 08:35:47 29° 96° (E) 08:39:31 2200.000
HO-68 12 Dec 08:35:31 08:42:06 37° 97° (E) 08:48:38 435.675
COMPASS 1 12 Dec 08:42:03 08:44:22 14° 92° (E) 08:46:41 437.405
SEEDS 12 Dec 08:43:39 08:47:02 23° 95° (E) 08:50:24 437.485
NOAA 18 12 Dec 08:59:16 09:04:30 44° 291° (WNW) 09:09:39 137.9125
YUBILEINY 12 Dec 09:15:59 09:20:43 16° 284° (WNW) 09:25:29 435.215
Oscar 11 12 Dec 09:18:30 09:19:26 11° 90° (E) 09:20:22 145.826/435.025
AIST 2 12 Dec 09:32:04 09:33:59 13° 319° (NW) 09:35:55 435.215
DOVE 4 12 Dec 09:32:08 09:34:47 14° 299° (WNW) 09:37:24 437.250
CUBEBUG 2 12 Dec 09:32:27 09:36:37 48° 99° (E) 09:40:40 437.445
TIGRISAT 12 Dec 09:35:14 09:37:26 13° 63° (ENE) 09:39:36 435.000
CUTE-I 12 Dec 09:35:45 09:38:13 13° 301° (WNW) 09:40:41 437.470
CUSAT 1 12 Dec 09:35:54 09:38:23 28° 96° (E) 09:40:42 437.405
NOAA 15 12 Dec 09:37:01 09:38:54 12° 302° (WNW) 09:40:47 137.62
ANTELSAT 12 Dec 09:38:01 09:40:39 15° 64° (ENE) 09:43:15 437.575/2403.000
AAUSAT CUBESAT 2 12 Dec 09:38:51 09:42:54 50° 99° (E) 09:46:57 437.432
PRISM 12 Dec 09:41:24 09:45:26 67° 74° (ENE) 09:49:31 437.425
Cosmos 2491 12 Dec 09:45:54 09:52:12 21° 295° (WNW) 09:58:31 435.465 / 435.565
DANDE 12 Dec 09:47:54 09:48:43 11° 94° (E) 09:49:30 436.750
CUTE 1.7 + AOD 2 12 Dec 09:48:10 09:52:09 41° 288° (WNW) 09:56:07 437.475
UWE-3 12 Dec 10:00:33 10:04:46 64° 101° (E) 10:08:52 435.000/436.395/437.385
CINEMA 3 12 Dec 10:00:40 10:04:14 22° 294° (WNW) 10:07:39 145.822/145.860
AO-85 12 Dec 10:01:03 10:04:35 30° 50° (NE) 10:08:02 145.980
Cosmos 2504 12 Dec 10:01:43 10:05:58 15° 285° (WNW) 10:10:06 435.465 / 435.565
CANX-2 12 Dec 10:08:11 10:11:29 22° 292° (WNW) 10:14:47 2200.000
COMPASS 1 12 Dec 10:16:09 10:20:08 44° 287° (WNW) 10:24:06 437.405
JAS-2 12 Dec 10:18:56 10:20:46 12° 60° (ENE) 10:22:35 435.910
SEEDS 12 Dec 10:19:05 10:22:41 28° 290° (WNW) 10:26:16 437.485
HO-68 12 Dec 10:23:09 10:29:50 43° 295° (WNW) 10:36:29 435.675
ZACube-1 12 Dec 10:26:13 10:30:25 75° 102° (ESE) 10:34:32 437.345
FUNcube-1 12 Dec 10:29:56 10:34:07 76° 102° (ESE) 10:38:13 145.935
RS-15 12 Dec 10:36:37 10:46:55 31° 330° (NNW) 10:57:31 29.354- 29.394
UNISAT 6 12 Dec 10:41:06 10:45:44 68° 74° (ENE) 10:50:19 437.425
Cosmos 2499 12 Dec 10:46:12 10:51:21 17° 61° (ENE) 10:56:17 435.465 / 435.565
Oscar 11 12 Dec 10:51:42 10:55:58 63° 285° (WNW) 11:00:13 145.826/435.025
HUMSAT D 12 Dec 10:54:35 10:57:54 24° 95° (E) 11:01:11 437.325/437.525
TIGRISAT 12 Dec 11:08:56 11:13:34 66° 259° (W) 11:18:09 435.000
CUBEBUG 2 12 Dec 11:10:26 11:12:48 15° 296° (WNW) 11:15:08 437.445
ANTELSAT 12 Dec 11:12:18 11:16:53 57° 260° (W) 11:21:26 437.575/2403.000
DELFI C3 12 Dec 11:13:04 11:17:05 82° 102° (ESE) 11:21:05 145.870
AAUSAT CUBESAT 2 12 Dec 11:15:51 11:17:57 14° 295° (WNW) 11:20:02 437.432
PCSat 12 Dec 11:17:46 11:23:08 70° 116° (ESE) 11:28:33 145.827
NANOSAT C BR1 12 Dec 11:27:34 11:30:46 21° 67° (ENE) 11:33:59 145.865
DANDE 12 Dec 11:27:50 11:31:17 30° 281° (W) 11:34:06 436.750
UWE-3 12 Dec 11:39:23 11:40:39 11° 297° (WNW) 11:41:53 435.000/436.395/437.385
QB50P2 12 Dec 11:39:30 11:43:18 32° 70° (ENE) 11:47:08 145.880/145.840
POLYITAN 1 12 Dec 11:39:53 11:43:39 31° 70° (ENE) 11:47:25 437.675
AO-85 12 Dec 11:41:47 11:44:47 21° 248° (WSW) 11:47:44 145.980
DUCHIFAT 1 12 Dec 11:45:32 11:49:15 30° 70° (ENE) 11:52:58 145.980
QB50P1 12 Dec 11:50:21 11:54:21 39° 72° (ENE) 11:58:21 145.935-145.965
GONETS M04 12 Dec 11:55:09 12:03:26 45° 75° (ENE) 12:11:42
JAS-2 12 Dec 11:58:59 12:05:12 84° 75° (ENE) 12:10:45 435.910
BEESAT 3 12 Dec 12:01:59 12:03:08 11° 40° (NE) 12:04:18 437.485
CUBEBUG 1 12 Dec 12:08:56 12:11:09 13° 91° (E) 12:13:21 437.445
POPSAT HIP 1 12 Dec 12:12:17 12:16:33 70° 75° (ENE) 12:20:49 437.405
